Location: Allaines
(49.9632°N, 2.9458°E)
Time: 22:04:52
(UTC+00:00)

BREEZE M DEB (TANK) - Pass Details

Date: 09 April 2020
Orbit: 313 x 13666 km, 49.6° (Epoch: 23 May)

Event Time Altitude Azimuth Distance (km) Brightness Sun altitude
Rises 20:39:01 0° 250° (WSW) 5,933 8.5 -18.8°
Reaches altitude 10° 20:44:30 10° 249° (WSW) 3,494 7.2 -19.5°
Maximum altitude 20:51:10 67° 168° (SSE) 627 2.8 -20.3°
Enters shadow 20:51:30 62° 130° (SE) 619 2.7 -20.3°
